Starlink 11233

operational
NORAD ID: 61061 Int'l Des: 2024-164 Owner: SPXS Country: US Constellation: starlink
LEOCIRCULAR

About Starlink 11233

Description loading...

Live Position

Loading 3D Globe...

Upcoming Passes

Altitude History

Altitude vs Time

uPlot chart will show altitude changes over time

Two-Line Element Set

1 61061U 24164M 26036.70559560 .00001928 00000-0 20759-4 0 9992
2 61061 53.1583 109.0678 0001020 80.3244 279.7889 15.69717412 80399
Epoch: Feb 5, 2026 • Age: 13 hours

Current Status

Altitude 378.9 km
Velocity 7.68 km/s
Sub-Earth Point -53.28°S, 147.95°E
Launch Date Sep 13, 2024
Age 1.3 years
Type internet

Technical Details

Classification Payload
Mass 960.00 kg
Dry Mass 910.00 kg
Total Mass 960.00 kg
Length 0.30 m
Diameter 4.10 m
Span 29.00 m
Shape Box + pan
Manufacturer SPXS
Bus Type Starlink V2MD
Phase Status In Orbit
Owner/State SPXS/US

Large Constellations

Loading constellations...